Torna al catalogo

STARLINK-2697

AttivoComunicazioniVLEO
NORAD 48474·PAYLOAD·🇺🇸 United States

Lanciato May 9, 2021 da Cape Canaveral Space Force Station

Loading…

Prossimi Passaggi (prossime 24 ore)

TLE

AggiornatoSource: CelesTrak SupGP

Epoca: Sep 14, 2026, 20:42 UTC

1 48474C 21040AY  26257.86298611  .00044090  00000+0  14180-2 0  2576
2 48474  53.1602  31.3811 0001277  79.4221  94.1709 15.31676742    18

Traccia STARLINK-2697 in tempo reale con AllMySat

Download on the App Store